When you browse on this site, cookies collect data to enhance your experience and personalize the content and advertising you see.
Visit our Privacy Policy to learn more. By continuing to use the site, you agree to this use of cookies and data.
EN

Hourly Weather Seversk

Today, 11 July, Saturday

Time Temperature Precipitation Wind Pressure Humidity
00:00 +19°C° 0 mm 2 mps 759 mmHg 66%
01:00 +18°C° 0 mm 2 mps 759 mmHg 68%
02:00 +18°C° 0 mm 2 mps 759 mmHg 70%
03:00 +18°C° 0 mm 1 mps 759 mmHg 71%
04:00 +17°C° 0 mm 2 mps 759 mmHg 72%
05:00 +18°C° 0 mm 2 mps 759 mmHg 73%
06:00 +18°C° 0 mm 2 mps 759 mmHg 74%
07:00 +20°C° 0 mm 2 mps 759 mmHg 67%
08:00 +21°C° 0 mm 2 mps 759 mmHg 61%
09:00 +24°C° 0 mm 3 mps 759 mmHg 55%
10:00 +25°C° 0 mm 3 mps 759 mmHg 50%
11:00 +27°C° 0 mm 3 mps 759 mmHg 45%
12:00 +28°C° 0 mm 3 mps 759 mmHg 41%
13:00 +28°C° 0 mm 3 mps 759 mmHg 39%
14:00 +29°C° 0 mm 4 mps 758 mmHg 38%
15:00 +30°C° 0 mm 4 mps 758 mmHg 37%
16:00 +29°C° 0 mm 4 mps 757 mmHg 39%
17:00 +29°C° 0 mm 4 mps 757 mmHg 41%
18:00 +29°C° 0 mm 4 mps 757 mmHg 43%
19:00 +27°C° 0 mm 3 mps 757 mmHg 50%
20:00 +25°C° 0 mm 3 mps 757 mmHg 56%
21:00 +22°C° 0 mm 3 mps 757 mmHg 62%
22:00 +21°C° 0 mm 3 mps 757 mmHg 65%
23:00 +21°C° 0 mm 3 mps 756 mmHg 68%

Tomorrow, 12 July, Sunday

Time Temperature Precipitation Wind Pressure Humidity
00:00 +20°C° 0 mm 3 mps 756 mmHg 71%
01:00 +19°C° 0 mm 3 mps 756 mmHg 73%
02:00 +19°C° 0 mm 3 mps 756 mmHg 75%
03:00 +18°C° 0 mm 3 mps 756 mmHg 78%
04:00 +18°C° 0 mm 3 mps 755 mmHg 78%
05:00 +19°C° 0 mm 3 mps 755 mmHg 79%
06:00 +19°C° 0 mm 3 mps 755 mmHg 79%
07:00 +21°C° 0 mm 3 mps 754 mmHg 74%
08:00 +23°C° 0 mm 4 mps 754 mmHg 70%
09:00 +26°C° 0 mm 4 mps 754 mmHg 65%
10:00 +28°C° 0 mm 4 mps 754 mmHg 60%
11:00 +30°C° 0 mm 4 mps 753 mmHg 56%
12:00 +32°C° 0 mm 4 mps 753 mmHg 51%
13:00 +33°C° 0 mm 4 mps 753 mmHg 50%
14:00 +33°C° 0 mm 4 mps 752 mmHg 48%
15:00 +33°C° 0 mm 4 mps 752 mmHg 47%
16:00 +33°C° 0 mm 4 mps 751 mmHg 47%
17:00 +33°C° 0 mm 4 mps 751 mmHg 48%
18:00 +33°C° 0 mm 4 mps 750 mmHg 48%
19:00 +30°C° 0.1 mm 4 mps 750 mmHg 54%
20:00 +29°C° 0.1 mm 4 mps 750 mmHg 59%
21:00 +27°C° 0.1 mm 4 mps 751 mmHg 65%
22:00 +26°C° 1.8 mm 3 mps 750 mmHg 73%
23:00 +25°C° 1.8 mm 2 mps 750 mmHg 81%

Day after tomorrow, 13 July, Monday

Time Temperature Precipitation Wind Pressure Humidity
00:00 +23°C° 1.8 mm 2 mps 750 mmHg 88%
01:00 +23°C° 1 mm 2 mps 749 mmHg 88%
02:00 +23°C° 1 mm 2 mps 749 mmHg 87%
03:00 +23°C° 1 mm 2 mps 749 mmHg 87%
04:00 +23°C° 0 mm 2 mps 748 mmHg 87%
05:00 +23°C° 0 mm 2 mps 748 mmHg 87%
06:00 +23°C° 0 mm 2 mps 748 mmHg 87%
07:00 +24°C° 0 mm 1 mps 748 mmHg 82%
08:00 +25°C° 0 mm 1 mps 748 mmHg 77%
09:00 +26°C° 0 mm 1 mps 747 mmHg 72%
10:00 +27°C° 0 mm 1 mps 747 mmHg 67%
11:00 +28°C° 0 mm 1 mps 747 mmHg 62%
12:00 +29°C° 0 mm 1 mps 747 mmHg 57%
13:00 +30°C° 0 mm 1 mps 747 mmHg 54%
14:00 +31°C° 0 mm 2 mps 747 mmHg 51%
15:00 +32°C° 0 mm 2 mps 746 mmHg 48%
16:00 +32°C° 0.2 mm 2 mps 746 mmHg 50%
17:00 +31°C° 0.2 mm 2 mps 746 mmHg 51%
18:00 +31°C° 0.2 mm 2 mps 745 mmHg 53%
19:00 +28°C° 3.3 mm 2 mps 746 mmHg 64%
20:00 +26°C° 3.3 mm 2 mps 746 mmHg 75%
21:00 +23°C° 3.3 mm 2 mps 746 mmHg 85%
22:00 +21°C° 0.4 mm 2 mps 746 mmHg 87%
23:00 +21°C° 0.4 mm 2 mps 746 mmHg 89%

14 July, Tuesday

Time Temperature Precipitation Wind Pressure Humidity
00:00 +21°C° 0.4 mm 2 mps 746 mmHg 91%
01:00 +21°C° 0 mm 2 mps 746 mmHg 93%
02:00 +20°C° 0 mm 2 mps 746 mmHg 94%
03:00 +20°C° 0 mm 2 mps 746 mmHg 95%
04:00 +20°C° 0 mm 3 mps 746 mmHg 95%
05:00 +20°C° 0 mm 3 mps 746 mmHg 94%
06:00 +20°C° 0 mm 3 mps 746 mmHg 94%
07:00 +20°C° 0 mm 4 mps 746 mmHg 91%
08:00 +21°C° 0 mm 4 mps 747 mmHg 88%
09:00 +21°C° 0 mm 4 mps 747 mmHg 86%
10:00 +21°C° 0 mm 4 mps 747 mmHg 84%
11:00 +21°C° 0 mm 4 mps 747 mmHg 83%
12:00 +22°C° 0 mm 5 mps 748 mmHg 81%
13:00 +21°C° 0.1 mm 5 mps 748 mmHg 81%
14:00 +21°C° 0.1 mm 6 mps 748 mmHg 81%
15:00 +21°C° 0.1 mm 6 mps 748 mmHg 81%
16:00 +21°C° 0 mm 6 mps 748 mmHg 81%
17:00 +20°C° 0 mm 6 mps 748 mmHg 80%
18:00 +20°C° 0 mm 6 mps 748 mmHg 79%
19:00 +20°C° 0 mm 6 mps 748 mmHg 81%
20:00 +19°C° 0 mm 6 mps 749 mmHg 83%
21:00 +17°C° 0 mm 6 mps 749 mmHg 84%
22:00 +17°C° 0 mm 6 mps 749 mmHg 85%
23:00 +17°C° 0 mm 6 mps 749 mmHg 86%

15 July, Wednesday

Time Temperature Precipitation Wind Pressure Humidity
00:00 +17°C° 0 mm 6 mps 749 mmHg 86%
01:00 +16°C° 0 mm 6 mps 750 mmHg 87%
02:00 +16°C° 0 mm 6 mps 750 mmHg 87%
03:00 +16°C° 0 mm 6 mps 750 mmHg 87%
04:00 +16°C° 0 mm 6 mps 750 mmHg 86%
05:00 +16°C° 0 mm 6 mps 751 mmHg 85%
06:00 +16°C° 0 mm 5 mps 751 mmHg 84%
07:00 +17°C° 0 mm 5 mps 751 mmHg 81%
08:00 +19°C° 0 mm 5 mps 752 mmHg 77%
09:00 +20°C° 0 mm 5 mps 752 mmHg 74%
10:00 +21°C° 0 mm 5 mps 752 mmHg 67%
11:00 +23°C° 0 mm 5 mps 753 mmHg 60%
12:00 +24°C° 0 mm 6 mps 753 mmHg 53%
13:00 +26°C° 0 mm 6 mps 753 mmHg 50%
14:00 +26°C° 0 mm 6 mps 753 mmHg 47%
15:00 +27°C° 0 mm 6 mps 753 mmHg 44%
16:00 +26°C° 0 mm 5 mps 753 mmHg 45%
17:00 +26°C° 0 mm 5 mps 753 mmHg 46%
18:00 +25°C° 0 mm 5 mps 753 mmHg 47%
19:00 +23°C° 0 mm 4 mps 753 mmHg 52%
20:00 +21°C° 0 mm 3 mps 754 mmHg 57%
21:00 +19°C° 0 mm 2 mps 754 mmHg 62%
22:00 +18°C° 0 mm 2 mps 754 mmHg 64%
23:00 +19°C° 0 mm 1 mps 754 mmHg 65%

16 July, Thursday

Time Temperature Precipitation Wind Pressure Humidity
00:00 +18°C° 0 mm 1 mps 754 mmHg 66%
01:00 +18°C° 0 mm 1 mps 754 mmHg 68%
02:00 +16°C° 0 mm 1 mps 754 mmHg 69%
03:00 +16°C° 0 mm 1 mps 754 mmHg 70%
04:00 +16°C° 0 mm 1 mps 754 mmHg 71%
05:00 +16°C° 0 mm 0 mps 754 mmHg 71%
06:00 +16°C° 0 mm 0 mps 754 mmHg 72%
07:00 +20°C° 0 mm 1 mps 754 mmHg 65%
08:00 +21°C° 0 mm 1 mps 755 mmHg 59%
09:00 +23°C° 0 mm 1 mps 755 mmHg 53%
10:00 +24°C° 0 mm 2 mps 754 mmHg 49%
11:00 +25°C° 0 mm 2 mps 754 mmHg 44%
12:00 +26°C° 0 mm 2 mps 754 mmHg 40%
13:00 +26°C° 0 mm 2 mps 754 mmHg 39%
14:00 +27°C° 0 mm 2 mps 754 mmHg 38%
15:00 +27°C° 0 mm 3 mps 754 mmHg 37%
16:00 +27°C° 0 mm 2 mps 753 mmHg 38%
17:00 +27°C° 0 mm 2 mps 753 mmHg 39%
18:00 +27°C° 0 mm 2 mps 753 mmHg 40%
19:00 +25°C° 0 mm 2 mps 753 mmHg 46%
20:00 +23°C° 0 mm 1 mps 753 mmHg 52%
21:00 +21°C° 0 mm 1 mps 753 mmHg 58%
22:00 +21°C° 0 mm 1 mps 753 mmHg 59%
23:00 +20°C° 0 mm 1 mps 753 mmHg 59%
Show more